[[{"header":{"parameterUnit":"m.s-1","parameterCategory":1,"la1":30.2991,"la2":30.254,"lo1":-89.0895,"lo2":-89.0444,"dy":0.0017,"dx":0.0017,"nx":28,"ny":28,"refTime":"2024-06-07T09:00:00:Z","depth":0,"parameterNumber":2,"parameterNumberName":"U-component_of_WINDS"},"data":[0,0,0,0,0,0,0,0,0,0,0,0,0,0,0,0,0,0,0,0,0,0,0,0,0,0,0,0,0,0,0,0,0,0,0,0,0,0,0,0,0,0,0,0,0,0,0,0,0,0,0,0,0,0,0,0,0,0,-0.7835,-0.7833,0,-0.7695,-0.7693,-0.7692,-0.762,-0.762,-0.762,-0.762,-0.7476,-0.7472,-0.7469,0,0,0,0,0,0,0,0,0,0,0,0,0,-0.804,-0.8037,-0.7835,-0.7833,-0.7831,-0.7695,-0.7693,-0.7691,-0.762,-0.762,-0.762,-0.762,-0.7477,-0.7473,-0.7468,0,0,0,0,0,0,0,0,0,0,0,0,0,-0.7931,-0.8036,-0.7835,-0.778,-0.7773,-0.7696,-0.7693,-0.7691,-0.762,-0.762,-0.762,-0.762,-0.7479,-0.7473,-0.7468,-0.7434,0,0,-0.745,-0.7448,0,0,0,0,0,0,0,0,-0.7937,-0.7923,-0.7789,-0.7783,-0.7776,-0.7675,-0.7713,-0.7605,-0.762,-0.7678,-0.762,-0.762,-0.7542,-0.7531,-0.7505,-0.7428,-0.7421,-0.745,-0.7446,-0.7444,-0.7442,0,0,0,0,0,0,0,-0.7945,-0.7929,-0.7779,-0.7788,-0.7779,-0.7761,-0.7746,-0.7692,-0.7612,-0.7673,-0.7668,-0.7652,-0.7538,-0.7511,-0.7501,-0.7419,-0.745,-0.7445,-0.7441,-0.7439,-0.7307,-0.7307,0,0,0,0,0,0,-0.7961,-0.7936,-0.7784,-0.7775,-0.7858,-0.7758,-0.774,-0.7707,-0.7613,-0.7598,-0.7652,-0.7649,-0.7521,-0.7508,-0.7496,-0.745,-0.7444,-0.7439,-0.7435,-0.7307,-0.7307,-0.7307,0,0,0,0,0,0,-0.7966,-0.7948,-0.7789,-0.7854,-0.7832,-0.7754,-0.7718,-0.7705,-0.7677,-0.7597,-0.7583,-0.7639,-0.752,-0.7504,-0.745,-0.7444,-0.7436,-0.7431,-0.7307,-0.7307,-0.7307,-0.7359,0,0,0,0,0,0,-0.7972,-0.7951,-0.7937,-0.7854,-0.7829,-0.7746,-0.7718,-0.7702,-0.7668,-0.7662,-0.758,-0.7567,-0.7519,-0.7459,-0.7445,-0.7436,-0.7426,-0.7307,-0.7307,-0.7307,-0.7358,-0.7361,-0.7364,0,0,0,0,0,-0.798,-0.7957,-0.7937,-0.7919,-0.7811,-0.7746,-0.7732,-0.7677,-0.7667,-0.7653,-0.7602,-0.7569,-0.7448,-0.7454,-0.7437,-0.7427,-0.7307,-0.7307,-0.7307,-0.7356,-0.736,-0.7364,0,0,0,0,0,0,-0.8042,-0.7945,-0.7922,-0.7872,-0.7818,-0.7734,-0.7715,-0.7683,-0.7631,-0.7628,-0.7562,-0.7544,-0.7496,-0.7456,-0.7465,-0.739,-0.7374,-0.7371,-0.7418,-0.7421,-0.7424,-0.7434,-0.7422,0,0,0,0,0,-0.805,-0.8005,-0.7924,-0.7887,-0.7862,-0.7793,-0.7763,-0.7726,-0.7667,-0.7643,-0.7588,-0.7532,-0.7481,-0.7449,-0.7397,-0.7352,-0.7333,-0.7337,-0.734,-0.7343,-0.734,-0.7312,-0.7313,-0.7306,-0.7306,-0.7306,0,0,-0.8065,-0.8007,-0.7983,-0.7898,-0.7852,-0.7807,-0.7774,-0.7728,-0.7695,-0.7636,-0.7582,-0.754,-0.7473,-0.7423,-0.7398,-0.7388,-0.7338,-0.7342,-0.7345,-0.7341,-0.7312,-0.7313,-0.7314,-0.7306,-0.7306,-0.7306,0,0,-0.8071,-0.8023,-0.7987,-0.7942,-0.7872,-0.7827,-0.7818,-0.774,-0.7709,-0.7654,-0.7609,-0.7568,-0.7482,-0.7436,-0.7401,-0.739,-0.7358,-0.7375,-0.739,-0.7365,-0.7365,-0.7365,-0.7361,-0.736,-0.7373,-0.7373,-0.7373,0,-0.8099,-0.803,-0.7973,-0.7929,-0.7893,-0.7839,-0.7802,-0.7761,-0.7678,-0.7655,-0.7645,-0.7535,-0.7486,-0.7425,-0.7422,-0.7396,-0.7384,-0.7384,-0.737,-0.7369,-0.7368,-0.7363,-0.7362,-0.7376,-0.7375,-0.7375,-0.7375,0,-0.8068,-0.8021,-0.8,-0.7922,-0.7884,-0.7844,-0.7781,-0.7749,-0.7715,-0.7671,-0.7615,-0.7555,-0.749,-0.7473,-0.744,-0.7407,-0.7403,-0.7382,-0.7365,-0.7373,-0.7367,-0.7364,-0.7379,-0.7378,-0.7378,-0.7377,0,0,-0.8107,-0.7998,-0.7992,-0.7955,-0.7875,-0.7837,-0.7795,-0.7732,-0.7706,-0.7651,-0.7614,-0.7543,-0.7523,-0.7484,-0.7445,-0.7422,-0.7417,-0.7404,-0.7402,-0.7408,-0.7376,-0.7391,-0.739,-0.7396,-0.7395,-0.7394,-0.7381,0,-0.8101,-0.8023,-0.7971,-0.7913,-0.7868,-0.7817,-0.778,-0.7727,-0.7684,-0.764,-0.7594,-0.7544,-0.7522,-0.7498,-0.7474,-0.7423,-0.7409,-0.7423,-0.7359,-0.7358,-0.7377,-0.7387,-0.7403,-0.7393,-0.7379,-0.7378,-0.7378,0,-0.8083,-0.803,-0.7968,-0.7892,-0.7871,-0.7839,-0.7777,-0.7736,-0.7675,-0.7645,-0.7602,-0.7563,-0.7516,-0.7504,-0.7438,-0.7448,-0.7419,-0.7391,-0.7389,-0.738,-0.7368,-0.7378,-0.7389,-0.7388,-0.7374,-0.7374,-0.7375,0,-0.8118,-0.803,-0.7982,-0.7952,-0.7863,-0.7842,-0.7803,-0.7742,-0.7707,-0.7653,-0.763,-0.7572,-0.7539,-0.7495,-0.744,-0.7437,-0.738,-0.7363,-0.7354,-0.7355,-0.7343,-0.7345,-0.735,-0.7327,-0.7327,-0.7327,-0.7327,0,-0.8115,-0.8079,-0.7996,-0.7966,-0.7924,-0.7864,-0.7825,-0.7782,-0.7728,-0.7688,-0.764,-0.7605,-0.7535,-0.7491,-0.7448,-0.74,-0.7386,-0.7361,-0.7349,-0.7364,-0.7368,-0.7344,-0.7343,-0.7326,-0.7326,-0.7326,-0.7326,0,-0.8147,-0.8089,-0.8033,-0.7953,-0.7932,-0.7905,-0.7836,-0.7805,-0.776,-0.7711,-0.7696,-0.7626,-0.7572,-0.7513,-0.7439,-0.741,-0.7364,-0.7349,-0.7385,-0.7378,-0.7372,-0.7373,-0.7361,-0.7356,-0.7338,-0.7338,-0.7338,0,-0.8149,-0.812,-0.8037,-0.8007,-0.797,-0.7923,-0.7887,-0.7828,-0.7793,-0.7721,-0.7698,-0.764,-0.759,-0.7506,-0.7448,-0.7391,-0.7373,-0.7373,-0.7364,-0.738,-0.7372,-0.7374,-0.7371,-0.7375,-0.7376,-0.7376,-0.7377,0,-0.8158,-0.8131,-0.8082,-0.8023,-0.7982,-0.7933,-0.7881,-0.786,-0.779,-0.7753,-0.7697,-0.7659,-0.7583,-0.7525,-0.7461,-0.7421,-0.7387,-0.738,-0.7375,-0.7389,-0.7411,-0.7398,-0.7391,-0.738,-0.738,-0.738,-0.7379,-0.7379,-0.8174,-0.8146,-0.8083,-0.8029,-0.7985,-0.7938,-0.7905,-0.7856,-0.7808,-0.7742,-0.771,-0.7653,-0.7592,-0.7503,-0.7464,-0.7419,-0.7408,-0.7401,-0.7399,-0.7398,-0.7401,-0.7419,-0.7407,-0.7407,-0.7407,-0.7407,-0.7406,0,-0.818,-0.8137,-0.8089,-0.8019,-0.7977,-0.7949,-0.7891,-0.7858,-0.7809,-0.7755,-0.7707,-0.7642,-0.7586,-0.7525,-0.7465,-0.7441,-0.7424,-0.7427,-0.7428,-0.7419,-0.7414,-0.7424,-0.7442,-0.7442,-0.7442,-0.7442,-0.7442,-0.7442,-0.8179,-0.8129,-0.8095,-0.8023,-0.798,-0.7924,-0.7893,-0.785,-0.7806,-0.7736,-0.769,-0.765,-0.7593,-0.7529,-0.7476,-0.7459,-0.7439,-0.7447,-0.7426,-0.7422,-0.742,-0.7417,-0.7426,-0.7444,-0.7444,-0.7434,-0.7434,-0.7434]},{"header":{"parameterUnit":"m.s-1","parameterCategory":1,"la1":30.2991,"la2":30.254,"lo1":-89.0895,"lo2":-89.0444,"dy":0.0017,"dx":0.0017,"nx":28,"ny":28,"refTime":"2024-06-07T09:00:00:Z","depth":0,"parameterNumber":3,"parameterNumberName":"V-component_of_WINDS"},"data":[0,0,0,0,0,0,0,0,0,0,0,0,0,0,0,0,0,0,0,0,0,0,0,0,0,0,0,0,0,0,0,0,0,0,0,0,0,0,0,0,0,0,0,0,0,0,0,0,0,0,0,0,0,0,0,0,0,0,2.9907,2.9907,0,2.9879,2.9878,2.9878,2.9856,2.9856,2.9856,2.9856,2.9824,2.9823,2.9823,0,0,0,0,0,0,0,0,0,0,0,0,0,2.994,2.9939,2.9907,2.9906,2.9906,2.9879,2.9878,2.9878,2.9856,2.9856,2.9856,2.9856,2.9824,2.9823,2.9823,0,0,0,0,0,0,0,0,0,0,0,0,0,2.992,2.9939,2.9907,2.9892,2.9891,2.9879,2.9878,2.9878,2.9856,2.9856,2.9856,2.9856,2.9825,2.9824,2.9823,2.9822,0,0,2.982,2.9819,0,0,0,0,0,0,0,0,2.9921,2.9919,2.9895,2.9893,2.9891,2.9871,2.9878,2.9859,2.9856,2.9869,2.9856,2.9855,2.984,2.9837,2.9833,2.9821,2.9819,2.9819,2.9819,2.9818,2.9818,0,0,0,0,0,0,0,2.9922,2.992,2.9896,2.9894,2.9892,2.9886,2.9883,2.9874,2.9856,2.9868,2.9867,2.9864,2.9839,2.9834,2.9832,2.9819,2.9819,2.9819,2.9818,2.9818,2.9806,2.9806,0,0,0,0,0,0,2.9927,2.9921,2.9896,2.9895,2.9906,2.9886,2.9882,2.9878,2.9856,2.9853,2.9864,2.9863,2.9835,2.9833,2.983,2.9829,2.9818,2.9817,2.9817,2.9805,2.9806,2.9806,0,0,0,0,0,0,2.9927,2.9925,2.9898,2.9907,2.9904,2.9886,2.988,2.9877,2.9872,2.9853,2.985,2.9862,2.9835,2.9832,2.9825,2.9828,2.9817,2.9816,2.9805,2.9805,2.9806,2.9826,0,0,0,0,0,0,2.9928,2.9925,2.9925,2.9908,2.9903,2.9893,2.9881,2.9877,2.9871,2.9869,2.9851,2.9847,2.9835,2.9826,2.9824,2.9826,2.9815,2.9805,2.9805,2.9806,2.9825,2.9827,2.9829,0,0,0,0,0,2.993,2.9931,2.9925,2.9922,2.9903,2.9893,2.9891,2.9877,2.9871,2.9871,2.9859,2.9848,2.9828,2.9826,2.9823,2.9825,2.9804,2.9805,2.9806,2.9824,2.9827,2.9829,0,0,0,0,0,0,2.9949,2.9929,2.9922,2.9918,2.9908,2.989,2.9889,2.988,2.987,2.9869,2.9851,2.9847,2.9842,2.9832,2.983,2.9823,2.9815,2.9815,2.983,2.9832,2.9834,2.9837,2.9815,0,0,0,0,0,2.9953,2.9947,2.993,2.9928,2.9923,2.9907,2.9902,2.9893,2.9881,2.9876,2.9863,2.9851,2.9842,2.9837,2.9827,2.9824,2.9819,2.9824,2.9825,2.9827,2.9828,2.9825,2.9827,2.9808,2.9808,2.9808,0,0,2.9961,2.9949,2.9946,2.9932,2.9922,2.9917,2.9904,2.9898,2.9893,2.9875,2.9868,2.9858,2.9843,2.9838,2.9835,2.983,2.9832,2.9828,2.9829,2.9829,2.9826,2.9828,2.983,2.9808,2.9808,2.9808,0,0,2.9972,2.9963,2.9961,2.9952,2.9939,2.9928,2.9927,2.9911,2.9904,2.9897,2.9883,2.9876,2.9861,2.9852,2.9845,2.9853,2.9843,2.985,2.9861,2.9859,2.986,2.9861,2.9865,2.9866,2.9851,2.9851,2.9851,0,2.9983,2.9975,2.9961,2.9956,2.995,2.9934,2.9932,2.9923,2.9907,2.9903,2.9898,2.9879,2.9868,2.986,2.9862,2.9857,2.9856,2.9853,2.9861,2.9862,2.9863,2.9866,2.9868,2.9852,2.9852,2.9851,2.9851,0,2.999,2.9984,2.9984,2.997,2.9963,2.996,2.9945,2.994,2.993,2.992,2.9913,2.9899,2.9887,2.9884,2.9875,2.9876,2.9873,2.9865,2.9856,2.9866,2.9869,2.987,2.9853,2.9853,2.9852,2.9852,0,0,3.0013,2.9991,2.9992,2.9985,2.9969,2.9964,2.9959,2.9949,2.9945,2.9934,2.993,2.9917,2.991,2.9902,2.9891,2.9889,2.9897,2.9881,2.9881,2.9885,2.9898,2.9905,2.9906,2.989,2.989,2.989,2.9899,0,3.0022,3.0015,3.0002,2.9998,2.9992,2.9977,2.9973,2.9962,2.9952,2.9946,2.9934,2.9926,2.9916,2.9912,2.9909,2.9897,2.99,2.9896,2.9886,2.9886,2.9891,2.9907,2.9915,2.9924,2.99,2.99,2.99,0,3.0032,3.0024,3.002,3.0005,3.0002,2.9999,2.9988,2.9981,2.9969,2.9962,2.9953,2.9942,2.9936,2.9927,2.9918,2.9916,2.9911,2.9904,2.9904,2.9903,2.9894,2.9907,2.9926,2.9928,2.9902,2.9901,2.9901,0,3.0051,3.0038,3.0034,3.0029,3.0011,3.0009,3.0001,2.9988,2.9983,2.9973,2.9969,2.9958,2.9952,2.9943,2.9929,2.9924,2.9922,2.9912,2.9915,2.9916,2.9916,2.9916,2.9935,2.9912,2.9912,2.9912,2.9912,0,3.0063,3.0061,3.0042,3.004,3.0037,3.0022,3.0019,3.001,2.9999,2.9994,2.9979,2.9975,2.9956,2.9949,2.9937,2.9932,2.9929,2.9923,2.992,2.9924,2.9925,2.9921,2.992,2.9912,2.9912,2.9912,2.9912,0,3.0083,3.007,3.0065,3.0049,3.0044,3.0043,3.0029,3.0026,3.0015,3.0009,3.0007,2.9989,2.9981,2.9965,2.9951,2.9944,2.9941,2.9935,2.9946,2.9944,2.9949,2.9949,2.9966,2.9967,2.9943,2.9943,2.9943,0,3.0093,3.0091,3.0075,3.0071,3.0064,3.0058,3.0052,3.0037,3.0032,3.0017,3.0016,3.0006,2.9997,2.9984,2.997,2.9959,2.9954,2.996,2.9952,2.9957,2.9954,2.9955,2.9955,2.9962,2.9963,2.9963,2.9963,0,3.0111,3.0104,3.0097,3.0088,3.0082,3.0074,3.0065,3.0062,3.0045,3.0039,3.0031,3.0024,3.0011,3.0001,2.9989,2.9979,2.9969,2.9966,2.9966,2.9972,2.9978,2.9975,2.9951,2.9966,2.9966,2.9965,2.9965,2.9965,3.0126,3.0124,3.0113,3.0105,3.0097,3.0089,3.0086,3.0075,3.0068,3.0056,3.0047,3.0039,3.0026,3.0009,3.0,2.9993,2.9988,2.9989,2.9989,2.9989,2.9992,2.9979,2.9991,2.9991,2.9991,2.9991,2.999,0,3.0144,3.0136,3.0129,3.0118,3.0112,3.0103,3.0092,3.0088,3.0081,3.0071,3.0063,3.0053,3.0043,3.0029,3.0018,3.0015,3.001,3.0013,3.0013,3.0012,2.9996,2.9998,3.0018,3.0018,3.0018,3.0018,3.0018,3.0018,3.0153,3.0149,3.0142,3.0134,3.0125,3.0118,3.0113,3.0105,3.0097,3.0087,3.0079,3.007,3.0058,3.0046,3.0037,3.0033,3.003,3.0035,3.0029,3.0015,3.0013,3.001,3.0011,3.0034,3.0034,3.0045,3.0045,3.0045]}]]